Location: ?????????
(41.1143°N, 22.7905°E)
Time: 09:37:02
(UTC+00:00)

Cosmos 1844 Rocket - Pass Details

Date: 13 December 2025
Orbit: 822 x 845 km, 71.0° (Epoch: 21 January)

Event Time Altitude Azimuth Distance (km) Brightness Sun altitude
Rises 17:41:14 0° 338° (NNW) 3,404 6.0 -29.3°
Reaches altitude 10° 17:43:42 10° 341° (NNW) 2,468 5.2 -29.8°
Enters shadow 17:45:59 25° 346° (NNW) 1,646 4.2 -30.2°
